Location: Santa Clara
(37.3540°N, 121.9540°W)
Time: 01:50:31
(UTC-07:00)

Hubble Space Telescope - Pass Details

Date: 01 June 2024
Orbit: 511 x 514 km, 28.5° (Epoch: 13 June)

Event Time Altitude Azimuth Distance (km) Brightness Sun altitude
Rises 22:02:26 0° 254° (WSW) 2,612 4.7 -16.4°
Reaches altitude 10° 22:05:29 10° 230° (SW) 1,724 3.4 -16.8°
Enters shadow 22:07:24 14° 201° (SSW) 1,464 2.7 -17.1°
